CW3882 Weather Reports


Display with metric or nautical units.
time (UTC)temp
F
wind
direction
speed
MPH
gust
MPH
rain 1hr
in
rain 24hr
in
rain mn
in
humidity
%
barometer
mb
20190322173711 45 350 6.0 8.0 0.00 0.00 0.00 53 1021.5
20190322173210 46 322 6.0 8.0 0.00 0.00 0.00 54 1021.5
20190322172709 45 0 3.0 9.0 0.00 0.00 0.00 52 1021.6
20190322172212 45 58 5.0 12.0 0.00 0.00 0.00 51 1021.6
20190322171710 46 9 6.0 12.0 0.00 0.00 0.00 52 1021.5
20190322171210 46 33 7.0 12.0 0.00 0.00 0.00 51 1021.4
20190322170711 45 37 5.0 12.0 0.00 0.00 0.00 52 1021.5
20190322170211 45 25 7.0 12.0 0.00 0.00 0.00 52 1021.4
20190322165710 45 41 6.0 10.0 0.00 0.00 0.00 52 1021.5
20190322165212 45 0 5.0 10.0 0.00 0.00 0.00 53 1021.5
20190322164710 45 351 7.0 10.0 0.00 0.00 0.00 54 1021.5
20190322164211 45 47 5.0 10.0 0.00 0.00 0.00 53 1021.4
20190322163711 45 12 6.0 9.0 0.00 0.00 0.00 55 1021.3
20190322163211 44 349 5.0 12.0 0.00 0.00 0.00 56 1021.3
20190322162710 44 38 5.0 12.0 0.00 0.00 0.00 57 1021.3
20190322162212 44 0 6.0 8.0 0.00 0.00 0.00 58 1021.3
20190322161711 44 337 5.0 8.0 0.00 0.00 0.00 58 1021.3
20190322161209 44 334 7.0 12.0 0.00 0.00 0.00 57 1021.3
20190322160712 44 1 7.0 12.0 0.00 0.00 0.00 58 1021.3
20190322160210 44 36 5.0 8.0 0.00 0.00 0.00 58 1021.3
20190322155710 43 34 6.0 8.0 0.00 0.00 0.00 58 1021.4
20190322155212 43 25 6.0 9.0 0.00 0.00 0.00 60 1021.4
20190322154710 43 17 7.0 9.0 0.00 0.00 0.00 59 1021.3
20190322154210 43 10 6.0 8.0 0.00 0.00 0.00 59 1021.3
20190322153712 43 7 2.0 12.0 0.00 0.00 0.00 60 1021.1
20190322153211 43 349 4.0 12.0 0.00 0.00 0.00 59 1021.0
20190322152710 42 28 5.0 12.0 0.00 0.00 0.00 60 1021.1
20190322152212 42 21 0.0 9.0 0.00 0.00 0.00 60 1020.8
20190322151710 42 346 0.0 7.0 0.00 0.00 0.00 61 1020.7
20190322151210 41 31 2.0 12.0 0.00 0.00 0.00 62 1020.6
20190322150712 41 26 2.0 12.0 0.00 0.00 0.00 63 1020.6
20190322150210 41 352 2.0 9.0 0.00 0.00 0.00 63 1020.5
20190322145710 41 49 0.0 9.0 0.00 0.00 0.00 64 1020.3
20190322145213 41 339 2.0 8.0 0.00 0.00 0.00 64 1020.3
20190322144710 40 336 1.0 8.0 0.00 0.00 0.00 64 1020.3
20190322144211 40 17 1.0 8.0 0.00 0.00 0.00 66 1020.2
20190322143712 40 42 1.0 8.0 0.00 0.00 0.00 66 1020.1
20190322143210 40 351 1.0 8.0 0.00 0.00 0.00 67 1020.1
20190322142710 40 20 1.0 8.0 0.00 0.00 0.00 67 1020.1
20190322142212 39 35 0.0 10.0 0.00 0.00 0.00 68 1020.1
20190322141711 39 348 1.0 10.0 0.00 0.00 0.00 68 1019.9
20190322141210 39 17 6.0 10.0 0.00 0.00 0.00 69 1019.9
20190322140712 39 6 0.0 7.0 0.00 0.00 0.00 70 1019.9
20190322140210 39 6 0.0 6.0 0.00 0.00 0.00 71 1019.8
20190322135709 39 25 1.0 7.0 0.00 0.00 0.00 71 1019.8
20190322135212 38 12 1.0 8.0 0.00 0.00 0.00 72 1019.7
20190322134710 38 31 2.0 9.0 0.00 0.00 0.00 73 1019.7
20190322134210 38 36 1.0 9.0 0.00 0.00 0.00 74 1019.6
20190322133712 37 349 3.0 9.0 0.00 0.00 0.00 76 1019.5
20190322133210 37 348 5.0 8.0 0.00 0.00 0.00 77 1019.5
20190322132709 37 359 1.0 7.0 0.00 0.00 0.00 78 1019.4
20190322132212 36 357 0.0 7.0 0.00 0.00 0.00 79 1019.3
20190322131712 35 7 1.0 7.0 0.00 0.00 0.00 82 1019.3
20190322131211 35 23 0.0 0.0 0.00 0.00 0.00 83 1019.3
20190322130711 34 355 0.0 0.0 0.00 0.00 0.00 84 1019.3
20190322130211 34 355 0.0 0.0 0.00 0.00 0.00 85 1019.3
20190322125709 33 15 0.0 0.0 0.00 0.00 0.00 87 1019.3
20190322125212 33 18 0.0 0.0 0.00 0.00 0.00 87 1019.1
20190322124710 32 19 0.0 0.0 0.00 0.00 0.00 88 1019.0
20190322124210 32 19 0.0 0.0 0.00 0.00 0.00 89 1018.9
20190322123711 32 17 0.0 0.0 0.00 0.00 0.00 90 1018.8
20190322123210 31 15 0.0 0.0 0.00 0.00 0.00 90 1018.8
20190322122709 31 15 0.0 0.0 0.00 0.00 0.00 90 1018.7
20190322122212 31 15 0.0 0.0 0.00 0.00 0.00 90 1018.6
20190322121710 31 15 0.0 0.0 0.00 0.00 0.00 90 1018.6
20190322121210 31 15 0.0 0.0 0.00 0.00 0.00 90 1018.5
20190322120711 31 15 0.0 0.0 0.00 0.00 0.00 89 1018.3
20190322120210 32 15 0.0 0.0 0.00 0.00 0.00 89 1018.2
20190322115710 32 15 0.0 0.0 0.00 0.00 0.00 89 1018.0
20190322115212 32 15 0.0 0.0 0.00 0.00 0.00 89 1017.9
20190322114709 32 15 0.0 0.0 0.00 0.00 0.00 89 1018.0
20190322114210 32 15 0.0 0.0 0.00 0.00 0.00 89 1017.8
20190322113712 32 15 0.0 0.0 0.00 0.00 0.00 89 1017.8
20190322113211 32 15 0.0 0.0 0.00 0.00 0.00 88 1017.8
20190322112710 32 15 0.0 0.0 0.00 0.00 0.00 88 1017.7
20190322112212 33 15 0.0 0.0 0.00 0.00 0.00 88 1017.7
20190322111710 33 15 0.0 0.0 0.00 0.00 0.00 88 1017.6
20190322111209 33 15 0.0 0.0 0.00 0.00 0.00 87 1017.5
20190322110711 33 15 0.0 0.0 0.00 0.00 0.00 87 1017.6
20190322110210 33 15 0.0 0.0 0.00 0.00 0.00 86 1017.4
20190322105709 33 15 0.0 0.0 0.00 0.00 0.00 86 1017.3
20190322105211 34 15 0.0 0.0 0.00 0.00 0.00 85 1017.3
20190322104709 34 15 0.0 0.0 0.00 0.00 0.00 85 1017.2
20190322104210 34 15 0.0 0.0 0.00 0.00 0.00 84 1017.2
20190322103711 35 15 0.0 0.0 0.00 0.00 0.00 84 1017.0
20190322103210 35 15 0.0 0.0 0.00 0.00 0.00 84 1016.9
20190322102710 35 15 0.0 0.0 0.00 0.00 0.00 84 1016.9
20190322102212 35 15 0.0 0.0 0.00 0.00 0.00 83 1016.9
20190322101713 35 15 0.0 0.0 0.00 0.00 0.00 83 1016.8
20190322101209 35 15 0.0 0.0 0.00 0.00 0.00 83 1016.6
20190322100711 35 15 0.0 0.0 0.00 0.00 0.00 83 1016.6
20190322100210 36 15 0.0 0.0 0.00 0.00 0.00 82 1016.6
20190322095709 36 15 0.0 0.0 0.00 0.00 0.00 82 1016.5
20190322095212 36 20 0.0 0.0 0.00 0.00 0.00 82 1016.5
20190322094710 36 20 0.0 0.0 0.00 0.00 0.00 82 1016.4
20190322094210 36 20 0.0 0.0 0.00 0.00 0.00 81 1016.3
20190322093712 37 20 0.0 0.0 0.00 0.00 0.00 81 1016.4
20190322093210 37 20 0.0 0.0 0.00 0.00 0.00 81 1016.4
20190322092709 37 5 0.0 0.0 0.00 0.00 0.00 80 1016.4
20190322092212 37 5 0.0 0.0 0.00 0.00 0.00 80 1016.4
20190322091710 37 348 0.0 0.0 0.00 0.00 0.00 80 1016.3
20190322091211 37 1 0.0 0.0 0.00 0.00 0.00 80 1016.3
20190322090712 37 352 0.0 1.0 0.00 0.00 0.00 81 1016.3
20190322090211 37 349 0.0 5.0 0.00 0.00 0.00 80 1016.4
20190322085710 37 349 0.0 6.0 0.00 0.00 0.00 81 1016.4
20190322085212 37 340 1.0 6.0 0.00 0.00 0.00 81 1016.4
20190322084712 37 351 0.0 0.0 0.00 0.00 0.00 82 1016.3
20190322084211 37 10 0.0 0.0 0.00 0.00 0.00 82 1016.2
20190322083711 37 352 0.0 0.0 0.00 0.00 0.00 83 1016.1
20190322083211 37 340 0.0 0.0 0.00 0.00 0.00 84 1016.1
20190322082709 37 347 0.0 0.0 0.00 0.00 0.00 84 1015.9
20190322082213 37 340 0.0 0.0 0.00 0.00 0.00 84 1015.9
20190322081710 37 339 0.0 0.0 0.00 0.00 0.00 84 1015.8
20190322081210 37 339 0.0 0.0 0.00 0.00 0.00 84 1015.9
20190322080711 37 346 0.0 0.0 0.00 0.00 0.00 84 1015.9
20190322080210 37 346 0.0 0.0 0.00 0.00 0.00 84 1015.9
20190322075710 37 337 0.0 0.0 0.00 0.00 0.00 84 1015.8
20190322075212 37 323 0.0 0.0 0.00 0.00 0.00 84 1015.7
20190322074710 37 322 0.0 0.0 0.00 0.00 0.00 84 1015.6
20190322074210 38 325 0.0 0.0 0.00 0.00 0.00 84 1015.6
20190322073711 38 317 0.0 0.0 0.00 0.00 0.00 84 1015.6
20190322073210 38 320 0.0 0.0 0.00 0.00 0.00 83 1015.6
20190322072709 38 338 0.0 1.0 0.00 0.00 0.00 83 1015.6
20190322072211 38 337 0.0 1.0 0.00 0.00 0.00 83 1015.6
20190322071711 38 321 0.0 1.0 0.00 0.00 0.00 83 1015.6
20190322071210 39 9 0.0 0.0 0.00 0.00 0.00 83 1015.5
20190322070711 39 330 0.0 0.0 0.00 0.00 0.00 83 1015.4
20190322070211 39 330 0.0 0.0 0.00 0.00 0.00 83 1015.4
20190322065710 39 331 0.0 0.0 0.00 0.00 0.00 83 1015.2
20190322065211 39 319 0.0 0.0 0.00 0.00 0.00 83 1015.2
20190322064710 39 317 0.0 0.0 0.00 0.00 0.00 83 1015.1
20190322064209 39 317 0.0 0.0 0.00 0.00 0.00 83 1015.0
20190322063712 39 328 0.0 1.0 0.00 0.00 0.00 83 1015.0
20190322063211 39 327 0.0 1.0 0.00 0.00 0.00 83 1015.0
20190322062710 39 332 0.0 5.0 0.00 0.00 0.00 83 1014.8
20190322062212 39 331 0.0 7.0 0.00 0.00 0.00 83 1014.7
20190322061710 39 326 0.0 7.0 0.00 0.00 0.00 83 1014.8
20190322061210 39 320 2.0 7.0 0.00 0.00 0.00 83 1014.7
20190322060711 39 0 0.0 6.0 0.00 0.00 0.00 83 1014.7
20190322060210 40 319 1.0 6.0 0.00 0.00 0.00 83 1014.6
20190322055710 40 348 1.0 5.0 0.00 0.00 0.00 83 1014.6
20190322055211 40 329 0.0 2.0 0.00 0.00 0.00 83 1014.7
20190322054710 40 356 0.0 5.0 0.00 0.00 0.00 83 1014.7
20190322054209 40 331 0.0 7.0 0.00 0.00 0.00 83 1014.6
20190322053711 40 341 1.0 7.0 0.00 0.00 0.00 83 1014.5
20190322053210 40 296 0.0 5.0 0.00 0.00 0.00 83 1014.5
20190322052710 40 327 0.0 8.0 0.00 0.00 0.00 83 1014.6
20190322052212 41 335 1.0 8.0 0.00 0.00 0.00 82 1014.6
20190322051711 41 310 1.0 8.0 0.00 0.00 0.00 82 1014.7
20190322051210 41 351 1.0 7.0 0.00 0.00 0.00 83 1014.7
20190322050711 41 346 1.0 7.0 0.00 0.00 0.00 82 1014.6
20190322050210 41 355 0.0 8.0 0.00 0.00 0.00 82 1014.4
20190322045709 41 286 0.0 8.0 0.00 0.00 0.00 82 1014.4
20190322045212 41 346 0.0 7.0 0.00 0.00 0.00 82 1014.5
20190322044710 41 315 1.0 7.0 0.00 0.00 0.00 83 1014.5
20190322044210 41 331 0.0 7.0 0.00 0.00 0.00 83 1014.5
20190322043711 41 323 1.0 8.0 0.00 0.00 0.00 83 1014.4
20190322043210 41 326 1.0 8.0 0.00 0.00 0.00 83 1014.5
20190322042711 41 337 0.0 6.0 0.00 0.00 0.00 83 1014.4
20190322042211 41 316 1.0 6.0 0.00 0.00 0.00 83 1014.5
20190322041710 40 320 0.0 2.0 0.00 0.00 0.00 83 1014.6
20190322041209 40 344 0.0 5.0 0.00 0.00 0.00 83 1014.6
20190322040711 40 293 0.0 5.0 0.00 0.00 0.00 83 1014.5
20190322040211 40 305 0.0 0.0 0.00 0.00 0.00 84 1014.5
20190322035709 40 274 0.0 0.0 0.00 0.00 0.00 84 1014.5
20190322035211 40 274 0.0 0.0 0.00 0.00 0.00 84 1014.5
20190322034710 40 274 0.0 2.0 0.00 0.00 0.00 83 1014.4
20190322034209 40 274 0.0 2.0 0.00 0.00 0.00 84 1014.5
20190322033711 40 242 0.0 0.0 0.00 0.00 0.00 83 1014.5
20190322033210 40 242 0.0 0.0 0.00 0.00 0.00 83 1014.5
20190322032710 40 242 0.0 0.0 0.00 0.00 0.00 83 1014.5
20190322032211 40 242 0.0 0.0 0.00 0.00 0.00 83 1014.4
20190322031710 40 242 0.0 0.0 0.00 0.00 0.00 82 1014.4
20190322031210 40 242 0.0 0.0 0.00 0.00 0.00 82 1014.4
20190322030711 40 242 0.0 0.0 0.00 0.00 0.00 82 1014.3
20190322030210 40 242 0.0 0.0 0.00 0.00 0.00 81 1014.2
20190322025709 40 242 0.0 0.0 0.00 0.00 0.00 81 1014.3
20190322025211 40 242 0.0 0.0 0.00 0.00 0.00 81 1014.3
20190322024710 40 242 0.0 0.0 0.00 0.00 0.00 80 1014.3
20190322024209 41 242 0.0 0.0 0.00 0.00 0.00 80 1014.3
20190322023711 41 242 0.0 0.0 0.00 0.00 0.00 80 1014.1
20190322023210 41 242 0.0 0.0 0.00 0.00 0.00 79 1014.2
20190322022709 41 242 0.0 0.0 0.00 0.00 0.00 79 1014.1
20190322022211 41 242 0.0 0.0 0.00 0.00 0.00 78 1014.0
20190322021710 41 242 0.0 0.0 0.00 0.00 0.00 78 1014.0
20190322021210 41 242 0.0 0.0 0.00 0.00 0.00 77 1013.9
20190322020711 41 256 0.0 0.0 0.00 0.00 0.00 77 1013.9
20190322020210 41 273 0.0 1.0 0.00 0.00 0.00 77 1014.0
20190322015710 41 274 0.0 1.0 0.00 0.00 0.00 76 1014.0
20190322015212 42 232 0.0 5.0 0.00 0.00 0.00 76 1014.0
20190322014710 42 269 0.0 5.0 0.00 0.00 0.00 76 1014.0
20190322014209 42 272 0.0 5.0 0.00 0.00 0.00 75 1014.1
20190322013711 42 272 1.0 5.0 0.00 0.00 0.00 74 1013.8
20190322013210 42 277 0.0 3.0 0.00 0.00 0.00 74 1013.8
20190322012710 42 272 1.0 3.0 0.00 0.00 0.00 73 1013.8
20190322012212 43 251 0.0 2.0 0.00 0.00 0.00 72 1013.8
20190322011711 43 251 0.0 2.0 0.00 0.00 0.00 72 1013.6
20190322011209 43 264 0.0 1.0 0.00 0.00 0.00 71 1013.6
20190322010711 43 248 0.0 1.0 0.00 0.00 0.00 71 1013.7
20190322010210 43 303 0.0 1.0 0.00 0.00 0.00 70 1013.5
20190322005709 43 271 0.0 6.0 0.00 0.00 0.00 69 1013.4
20190322005211 44 247 0.0 6.0 0.00 0.00 0.00 68 1013.4
20190322004710 44 247 1.0 8.0 0.00 0.00 0.00 68 1013.4
20190322004209 44 246 4.0 8.0 0.00 0.00 0.00 67 1013.5
20190322003711 44 275 4.0 8.0 0.00 0.00 0.00 67 1013.6
20190322003210 45 251 3.0 8.0 0.00 0.00 0.00 66 1013.6
20190322002709 45 265 5.0 8.0 0.00 0.00 0.00 65 1013.6
20190322002212 45 250 5.0 8.0 0.00 0.00 0.00 64 1013.5
20190322001710 46 259 2.0 6.0 0.00 0.00 0.00 63 1013.6
20190322001209 46 257 2.0 12.0 0.00 0.00 0.00 62 1013.6
20190322000716 46 258 2.0 12.0 0.00 0.00 0.00 61 1013.5
20190322000210 47 266 5.0 12.0 0.00 0.00 0.00 61 1013.7
20190321235709 47 298 5.0 8.0 0.00 0.00 0.00 60 1013.6
20190321235212 47 337 4.0 8.0 0.00 0.00 0.00 59 1013.3
20190321234710 48 292 4.0 10.0 0.00 0.00 0.00 58 1013.3
20190321234209 48 321 6.0 10.0 0.00 0.00 0.00 57 1013.2
20190321233712 48 305 5.0 16.0 0.00 0.00 0.00 56 1013.3
20190321233210 49 270 6.0 16.0 0.00 0.00 0.00 56 1013.4
20190321232709 49 311 5.0 12.0 0.00 0.00 0.00 56 1013.4
20190321232211 49 276 3.0 12.0 0.00 0.00 0.00 56 1013.2
20190321231710 49 267 6.0 12.0 0.00 0.00 0.00 55 1013.2
20190321231210 49 304 5.0 8.0 0.00 0.00 0.00 56 1013.2
20190321230711 49 290 5.0 8.0 0.00 0.00 0.00 56 1013.1
20190321230211 49 264 6.0 12.0 0.00 0.00 0.00 57 1013.2
20190321225710 49 262 6.0 12.0 0.00 0.00 0.00 58 1013.2
20190321225212 49 249 5.0 10.0 0.00 0.00 0.00 59 1013.1
20190321224710 49 274 4.0 10.0 0.00 0.00 0.00 58 1013.1
20190321224210 49 252 6.0 12.0 0.00 0.00 0.00 57 1013.2
20190321223711 49 252 6.0 12.0 0.00 0.00 0.00 58 1013.1
20190321223211 49 262 7.0 9.0 0.00 0.00 0.00 57 1013.0
20190321222709 49 297 7.0 9.0 0.00 0.00 0.00 56 1013.0
20190321222211 49 265 7.0 9.0 0.00 0.00 0.00 56 1013.0
20190321221711 49 292 7.0 9.0 0.00 0.00 0.00 55 1013.3
20190321221210 49 281 7.0 13.0 0.00 0.00 0.00 55 1013.4
20190321220712 49 286 3.0 13.0 0.00 0.00 0.00 55 1013.4
20190321220210 49 243 7.0 13.0 0.00 0.00 0.00 55 1013.5
20190321215710 49 249 9.0 13.0 0.00 0.00 0.00 55 1013.5
20190321215211 50 256 7.0 9.0 0.00 0.00 0.00 57 1013.6
20190321214710 49 267 6.0 9.0 0.00 0.00 0.00 57 1013.6
20190321214210 49 253 7.0 9.0 0.00 0.00 0.00 56 1013.7
20190321213711 49 250 6.0 13.0 0.00 0.00 0.00 57 1013.6
20190321213210 49 258 6.0 15.0 0.00 0.00 0.00 57 1013.5
20190321212710 49 262 7.0 15.0 0.00 0.00 0.00 57 1013.6
20190321212212 49 246 7.0 15.0 0.00 0.00 0.00 57 1013.6
20190321211710 49 258 7.0 9.0 0.00 0.00 0.00 57 1013.6
20190321211210 49 246 6.0 9.0 0.00 0.00 0.00 58 1013.8
20190321210711 49 280 7.0 13.0 0.00 0.00 0.00 58 1013.9
20190321210210 49 249 6.0 13.0 0.00 0.00 0.00 58 1013.7
20190321205710 48 240 8.0 13.0 0.00 0.00 0.00 58 1013.7
20190321205213 48 251 7.0 9.0 0.00 0.00 0.00 58 1013.8
20190321204711 48 290 7.0 10.0 0.00 0.00 0.00 58 1014.0
20190321204209 48 253 7.0 10.0 0.00 0.00 0.00 59 1014.0
20190321203712 48 275 8.0 10.0 0.00 0.00 0.00 58 1014.1
20190321203211 48 289 7.0 15.0 0.00 0.00 0.00 59 1014.2
20190321202710 48 246 7.0 15.0 0.00 0.00 0.00 60 1014.3
20190321202212 48 239 9.0 15.0 0.00 0.00 0.00 60 1014.4
20190321201710 49 238 5.0 9.0 0.00 0.00 0.00 61 1014.5
20190321201210 49 230 6.0 12.0 0.00 0.00 0.00 61 1014.5
20190321200712 49 244 6.0 12.0 0.00 0.00 0.00 60 1014.6
20190321200210 49 292 6.0 10.0 0.00 0.00 0.00 60 1014.6
20190321195709 49 245 5.0 13.0 0.00 0.00 0.00 60 1014.7
20190321195211 49 247 9.0 13.0 0.00 0.00 0.00 59 1014.9
20190321194710 49 249 6.0 16.0 0.00 0.00 0.00 60 1015.0
20190321194210 48 238 9.0 16.0 0.00 0.00 0.00 59 1015.1
20190321193711 48 247 7.0 12.0 0.00 0.00 0.00 60 1015.2
20190321193211 48 323 3.0 13.0 0.00 0.00 0.00 60 1015.2
20190321192709 48 253 9.0 13.0 0.00 0.00 0.00 59 1015.2
20190321192212 48 276 6.0 9.0 0.00 0.00 0.00 60 1015.4
20190321191711 48 282 6.0 7.0 0.00 0.00 0.00 61 1015.5
20190321191210 48 332 3.0 8.0 0.00 0.00 0.00 61 1015.6
20190321190711 47 329 5.0 8.0 0.00 0.00 0.00 61 1015.7
20190321190210 47 309 5.0 8.0 0.00 0.00 0.00 61 1015.7
20190321185711 47 318 2.0 9.0 0.00 0.00 0.00 62 1016.0
20190321185211 47 329 5.0 10.0 0.00 0.00 0.00 62 1016.1
20190321184710 47 326 5.0 10.0 0.00 0.00 0.00 61 1016.0
20190321184210 47 321 0.0 12.0 0.00 0.00 0.00 62 1016.1
20190321183711 46 254 1.0 12.0 0.00 0.00 0.00 62 1016.2
20190321183211 46 291 3.0 12.0 0.00 0.00 0.00 64 1016.2
20190321182709 46 311 0.0 12.0 0.00 0.00 0.00 64 1016.3
20190321182212 46 353 1.0 12.0 0.00 0.00 0.00 64 1016.3
20190321181710 45 317 5.0 13.0 0.00 0.00 0.00 63 1016.5
20190321181209 46 318 3.0 13.0 0.00 0.00 0.00 63 1016.6
20190321180711 46 254 1.0 8.0 0.00 0.00 0.00 64 1016.7
20190321180210 45 293 4.0 8.0 0.00 0.00 0.00 65 1016.8
20190321175710 45 292 0.0 7.0 0.00 0.00 0.00 66 1016.8
20190321175212 45 325 1.0 7.0 0.00 0.00 0.00 66 1016.7
20190321174710 45 322 0.0 7.0 0.00 0.00 0.00 66 1016.9
20190321174209 45 260 1.0 7.0 0.00 0.00 0.00 68 1016.9